MTN324 KSEA-KACV

Flight info

Callsign MTN324
Flight time 1h 23m
Altitude 35000
Route HAROB6 ERAVE Q1 ENVIE VOMAC ACV
Aircraft E75L/M-SDE3GILORVW/S

Departure

Time 2026-04-16 22:14
Airport Seattle–Tacoma International Airport (KSEA)

Arrival

Time 2026-04-16 23:37
Airport California Redwood Coast-Humboldt County Airport (KACV)
Time Latitude Longitude Altitude Speed Heading
2026-04-16 21:54 47.44841 -122.30077 407 ft 0 kts 248°
2026-04-16 22:05 47.44845 -122.30061 407 ft 4 kts 246°
2026-04-16 22:05 47.44858 -122.30027 403 ft 4 kts 229°
2026-04-16 22:06 47.44878 -122.30013 404 ft 4 kts 157°
2026-04-16 22:06 47.44881 -122.30016 403 ft 2 kts 151°
2026-04-16 22:08 47.44875 -122.30010 406 ft 3 kts 152°
2026-04-16 22:08 47.44836 -122.29989 406 ft 8 kts 167°
2026-04-16 22:08 47.44769 -122.30000 406 ft 12 kts 201°
2026-04-16 22:09 47.44697 -122.30082 404 ft 15 kts 234°
2026-04-16 22:09 47.44678 -122.30201 403 ft 13 kts 283°
2026-04-16 22:09 47.44728 -122.30317 404 ft 14 kts 310°
2026-04-16 22:09 47.44789 -122.30424 406 ft 11 kts 309°
2026-04-16 22:10 47.44807 -122.30544 405 ft 13 kts 270°
2026-04-16 22:10 47.44857 -122.30626 404 ft 13 kts 355°
2026-04-16 22:10 47.44955 -122.30627 406 ft 15 kts 359°
2026-04-16 22:10 47.45072 -122.30627 412 ft 18 kts
2026-04-16 22:11 47.45198 -122.30625 416 ft 18 kts
2026-04-16 22:11 47.45324 -122.30624 422 ft 18 kts
2026-04-16 22:11 47.45455 -122.30623 420 ft 19 kts
2026-04-16 22:11 47.45593 -122.30621 432 ft 20 kts
2026-04-16 22:12 47.45735 -122.30620 429 ft 21 kts 360°
2026-04-16 22:12 47.45889 -122.30619 430 ft 23 kts
2026-04-16 22:12 47.46049 -122.30618 437 ft 23 kts
2026-04-16 22:12 47.46208 -122.30616 435 ft 21 kts 360°
2026-04-16 22:13 47.46313 -122.30615 432 ft 12 kts
2026-04-16 22:13 47.46371 -122.30651 436 ft 9 kts 300°
2026-04-16 22:13 47.46359 -122.30756 438 ft 12 kts 225°
2026-04-16 22:13 47.46280 -122.30778 432 ft 35 kts 181°
2026-04-16 22:14 47.45431 -122.30788 434 ft 144 kts 182°
2026-04-16 22:14 47.44319 -122.30791 1072 ft 173 kts 181°
2026-04-16 22:14 47.43145 -122.30779 1806 ft 170 kts 184°
2026-04-16 22:14 47.41917 -122.30837 2547 ft 183 kts 184°
2026-04-16 22:15 47.41046 -122.30862 2990 ft 194 kts 184°
2026-04-16 22:15 47.39633 -122.30895 3729 ft 213 kts 184°
2026-04-16 22:15 47.38036 -122.30958 4152 ft 243 kts 185°
2026-04-16 22:15 47.36268 -122.31058 4787 ft 261 kts 184°
2026-04-16 22:16 47.34441 -122.31223 5682 ft 264 kts 193°
2026-04-16 22:16 47.32793 -122.32335 6594 ft 262 kts 222°
2026-04-16 22:16 47.31719 -122.34468 7458 ft 260 kts 248°
2026-04-16 22:16 47.31278 -122.37044 8242 ft 261 kts 262°
2026-04-16 22:17 47.31009 -122.39711 8988 ft 265 kts 265°
2026-04-16 22:17 47.30808 -122.42437 9757 ft 269 kts 267°
2026-04-16 22:17 47.30666 -122.45229 10325 ft 281 kts 270°
2026-04-16 22:17 47.30709 -122.48185 10678 ft 297 kts 276°
2026-04-16 22:18 47.30852 -122.51283 11170 ft 307 kts 275°
2026-04-16 22:18 47.30970 -122.54406 11867 ft 310 kts 275°
2026-04-16 22:18 47.31078 -122.57597 12651 ft 313 kts 275°
2026-04-16 22:18 47.31178 -122.60822 13432 ft 316 kts 275°
2026-04-16 22:19 47.31277 -122.64077 14211 ft 320 kts 275°
2026-04-16 22:19 47.31368 -122.67375 14941 ft 324 kts 275°
2026-04-16 22:19 47.31462 -122.70714 15708 ft 327 kts 275°
2026-04-16 22:19 47.31555 -122.74087 16438 ft 331 kts 275°
2026-04-16 22:20 47.31458 -122.77507 17141 ft 341 kts 262°
2026-04-16 22:20 47.30697 -122.80863 17859 ft 348 kts 253°
2026-04-16 22:20 47.29808 -122.84162 18541 ft 353 kts 253°
2026-04-16 22:20 47.28893 -122.87537 19108 ft 357 kts 253°
2026-04-16 22:21 47.27969 -122.90951 19706 ft 360 kts 253°
2026-04-16 22:21 47.27028 -122.94398 20300 ft 364 kts 254°
2026-04-16 22:21 47.26080 -122.97873 20918 ft 367 kts 254°
2026-04-16 22:21 47.25113 -123.01371 21508 ft 371 kts 253°
2026-04-16 22:22 47.23716 -123.04663 22056 ft 392 kts 233°
2026-04-16 22:22 47.21588 -123.07286 22638 ft 404 kts 223°
2026-04-16 22:22 47.19304 -123.09736 23235 ft 409 kts 223°
2026-04-16 22:22 47.17002 -123.12239 23817 ft 414 kts 223°
2026-04-16 22:23 47.14672 -123.14768 24346 ft 418 kts 224°
2026-04-16 22:23 47.12352 -123.17284 24894 ft 421 kts 224°
2026-04-16 22:23 47.09979 -123.19852 25465 ft 424 kts 224°
2026-04-16 22:23 47.07597 -123.22429 26079 ft 425 kts 224°
2026-04-16 22:24 47.05208 -123.25004 26677 ft 426 kts 224°
2026-04-16 22:24 47.02806 -123.27591 27179 ft 429 kts 224°
2026-04-16 22:24 47.00386 -123.30183 27677 ft 433 kts 224°
2026-04-16 22:24 46.97979 -123.32754 28234 ft 434 kts 224°
2026-04-16 22:25 46.95508 -123.35387 28889 ft 433 kts 224°
2026-04-16 22:25 46.93094 -123.37928 29561 ft 434 kts 222°
2026-04-16 22:25 46.90326 -123.39868 30211 ft 452 kts 202°
2026-04-16 22:25 46.87162 -123.40429 30782 ft 465 kts 185°
2026-04-16 22:26 46.83919 -123.40264 31308 ft 465 kts 183°
2026-04-16 22:26 46.80688 -123.40140 31808 ft 464 kts 184°
2026-04-16 22:26 46.77459 -123.40028 32350 ft 463 kts 184°
2026-04-16 22:26 46.74238 -123.39930 32849 ft 462 kts 184°
2026-04-16 22:27 46.71022 -123.39839 33322 ft 462 kts 184°
2026-04-16 22:27 46.67811 -123.39753 33792 ft 461 kts 185°
2026-04-16 22:27 46.64607 -123.39670 34298 ft 459 kts 185°
2026-04-16 22:27 46.61413 -123.39596 34710 ft 458 kts 185°
2026-04-16 22:28 46.58227 -123.39521 35126 ft 456 kts 185°
2026-04-16 22:28 46.55064 -123.39448 35433 ft 457 kts 185°
2026-04-16 22:28 46.48609 -123.39258 35458 ft 476 kts 184°
2026-04-16 22:29 46.41873 -123.39056 35447 ft 493 kts 184°
2026-04-16 22:29 46.38425 -123.38943 35330 ft 497 kts 184°
2026-04-16 22:29 46.34965 -123.38834 35339 ft 499 kts 184°
2026-04-16 22:30 46.27981 -123.38624 35338 ft 502 kts 184°
2026-04-16 22:30 46.21042 -123.38424 35336 ft 501 kts 184°
2026-04-16 22:31 46.14066 -123.38234 35338 ft 502 kts 184°
2026-04-16 22:31 46.07083 -123.38036 35348 ft 501 kts 184°
2026-04-16 22:32 46.00106 -123.37833 35345 ft 501 kts 184°
2026-04-16 22:32 45.93144 -123.37628 35342 ft 500 kts 185°
2026-04-16 22:33 45.86186 -123.37424 35339 ft 499 kts 185°
2026-04-16 22:33 45.79245 -123.37220 35341 ft 498 kts 185°
2026-04-16 22:34 45.72347 -123.37022 35343 ft 499 kts 185°
2026-04-16 22:34 45.65416 -123.36830 35343 ft 497 kts 185°
2026-04-16 22:35 45.58492 -123.36634 35348 ft 498 kts 185°
2026-04-16 22:35 45.51578 -123.36434 35343 ft 497 kts 185°
2026-04-16 22:36 45.44665 -123.36236 35351 ft 497 kts 185°
2026-04-16 22:36 45.37769 -123.36036 35348 ft 495 kts 185°
2026-04-16 22:37 45.30881 -123.35837 35348 ft 495 kts 185°
2026-04-16 22:37 45.24045 -123.35640 35354 ft 493 kts 185°
2026-04-16 22:38 45.17174 -123.35443 35349 ft 494 kts 185°
2026-04-16 22:38 45.10318 -123.35246 35348 ft 492 kts 186°
2026-04-16 22:39 45.03468 -123.35050 35356 ft 492 kts 186°
2026-04-16 22:39 44.96624 -123.34854 35361 ft 491 kts 186°
2026-04-16 22:40 44.89790 -123.34660 35366 ft 491 kts 186°
2026-04-16 22:40 44.82960 -123.34467 35367 ft 490 kts 186°
2026-04-16 22:41 44.76153 -123.34273 35380 ft 490 kts 186°
2026-04-16 22:41 44.69358 -123.34082 35378 ft 489 kts 186°
2026-04-16 22:42 44.62541 -123.33888 35390 ft 489 kts 186°
2026-04-16 22:42 44.55743 -123.33696 35388 ft 487 kts 187°
2026-04-16 22:43 44.49003 -123.33507 35399 ft 487 kts 186°
2026-04-16 22:43 44.42219 -123.33124 35386 ft 487 kts 186°
2026-04-16 22:44 44.35448 -123.32731 35388 ft 487 kts 186°
2026-04-16 22:44 44.28675 -123.32344 35377 ft 486 kts 186°
2026-04-16 22:45 44.21951 -123.31960 35381 ft 486 kts 186°
2026-04-16 22:45 44.15205 -123.31603 35377 ft 483 kts 187°
2026-04-16 22:46 44.08487 -123.31343 35387 ft 483 kts 187°
2026-04-16 22:46 44.01773 -123.31076 35373 ft 482 kts 187°
2026-04-16 22:47 43.95110 -123.30811 35378 ft 481 kts 187°
2026-04-16 22:47 43.88435 -123.30542 35376 ft 479 kts 187°
2026-04-16 22:48 43.81766 -123.30277 35373 ft 479 kts 187°
2026-04-16 22:48 43.75106 -123.30010 35369 ft 477 kts 187°
2026-04-16 22:49 43.68464 -123.29746 35375 ft 477 kts 187°
2026-04-16 22:49 43.61885 -123.29485 35369 ft 475 kts 187°
2026-04-16 22:50 43.55281 -123.29223 35371 ft 475 kts 187°
2026-04-16 22:50 43.48691 -123.28962 35362 ft 473 kts 187°
2026-04-16 22:51 43.42106 -123.28701 35375 ft 473 kts 187°
2026-04-16 22:51 43.35538 -123.28443 35370 ft 471 kts 188°
2026-04-16 22:52 43.28980 -123.28184 35367 ft 471 kts 188°
2026-04-16 22:52 43.22438 -123.27927 35366 ft 469 kts 188°
2026-04-16 22:53 43.15915 -123.27673 35378 ft 469 kts 188°
2026-04-16 22:53 43.09405 -123.27418 35371 ft 467 kts 188°
2026-04-16 22:54 43.02903 -123.27164 35363 ft 467 kts 188°
2026-04-16 22:54 42.96458 -123.26912 35359 ft 465 kts 188°
2026-04-16 22:55 42.89983 -123.26662 35350 ft 465 kts 188°
2026-04-16 22:55 42.83509 -123.26412 35200 ft 466 kts 188°
2026-04-16 22:56 42.80263 -123.26286 34806 ft 466 kts 189°
2026-04-16 22:56 42.77021 -123.26159 34403 ft 465 kts 189°
2026-04-16 22:56 42.73797 -123.26036 33941 ft 463 kts 189°
2026-04-16 22:56 42.70578 -123.25910 33454 ft 462 kts 189°
2026-04-16 22:57 42.67362 -123.25789 32929 ft 463 kts 189°
2026-04-16 22:57 42.64141 -123.25664 32398 ft 463 kts 189°
2026-04-16 22:57 42.60927 -123.25544 31877 ft 462 kts 189°
2026-04-16 22:57 42.57723 -123.25417 31363 ft 461 kts 189°
2026-04-16 22:58 42.54515 -123.25297 30858 ft 462 kts 190°
2026-04-16 22:58 42.51301 -123.25174 30352 ft 460 kts 190°
2026-04-16 22:58 42.48127 -123.25045 29749 ft 452 kts 190°
2026-04-16 22:58 42.45041 -123.24929 29110 ft 447 kts 190°
2026-04-16 22:59 42.41940 -123.24814 28489 ft 444 kts 190°
2026-04-16 22:59 42.38860 -123.24698 27892 ft 441 kts 190°
2026-04-16 22:59 42.35814 -123.24580 27305 ft 437 kts 190°
2026-04-16 22:59 42.32777 -123.24474 26658 ft 435 kts 190°
2026-04-16 23:00 42.29757 -123.24362 26032 ft 432 kts 189°
2026-04-16 23:00 42.26764 -123.24251 25431 ft 428 kts 189°
2026-04-16 23:00 42.23800 -123.24141 24842 ft 423 kts 190°
2026-04-16 23:00 42.20862 -123.24036 24269 ft 420 kts 189°
2026-04-16 23:01 42.18929 -123.23966 23901 ft 418 kts 189°
2026-04-16 23:01 42.16032 -123.23860 23243 ft 415 kts 189°
2026-04-16 23:01 42.12239 -123.23717 22414 ft 408 kts 189°
2026-04-16 23:01 42.09402 -123.23615 21805 ft 406 kts 189°
2026-04-16 23:02 42.06595 -123.23508 21206 ft 402 kts 189°
2026-04-16 23:02 42.04709 -123.23435 20817 ft 401 kts 189°
2026-04-16 23:02 42.01926 -123.23336 20253 ft 397 kts 189°
2026-04-16 23:02 41.99182 -123.23234 19697 ft 392 kts 189°
2026-04-16 23:03 41.96465 -123.23137 19167 ft 390 kts 189°
2026-04-16 23:03 41.93787 -123.23038 18651 ft 390 kts 189°
2026-04-16 23:03 41.91047 -123.22944 18058 ft 387 kts 189°
2026-04-16 23:03 41.88378 -123.22851 17472 ft 381 kts 189°
2026-04-16 23:04 41.85748 -123.22753 16902 ft 376 kts 188°
2026-04-16 23:04 41.83145 -123.22658 16350 ft 371 kts 188°
2026-04-16 23:04 41.80580 -123.22561 15827 ft 365 kts 187°
2026-04-16 23:04 41.78111 -123.22463 15330 ft 357 kts 188°
2026-04-16 23:05 41.75618 -123.22380 14895 ft 358 kts 188°
2026-04-16 23:05 41.73134 -123.22302 14480 ft 356 kts 187°
2026-04-16 23:05 41.70664 -123.22217 14050 ft 354 kts 187°
2026-04-16 23:05 41.68217 -123.22125 13563 ft 350 kts 187°
2026-04-16 23:06 41.65791 -123.22028 13109 ft 347 kts 186°
2026-04-16 23:06 41.63391 -123.21969 12658 ft 340 kts 189°
2026-04-16 23:06 41.61110 -123.22473 12204 ft 326 kts 204°
2026-04-16 23:06 41.59042 -123.23606 11806 ft 316 kts 211°
2026-04-16 23:07 41.57085 -123.24870 11404 ft 307 kts 212°
2026-04-16 23:07 41.55198 -123.26108 11014 ft 298 kts 212°
2026-04-16 23:07 41.53397 -123.27290 10638 ft 286 kts 212°
2026-04-16 23:07 41.51609 -123.28461 10276 ft 278 kts 212°
2026-04-16 23:08 41.49940 -123.29555 9971 ft 264 kts 211°
2026-04-16 23:08 41.48332 -123.30628 9969 ft 257 kts 212°
2026-04-16 23:08 41.46721 -123.31727 10023 ft 262 kts 212°
2026-04-16 23:08 41.45118 -123.32816 10023 ft 256 kts 212°
2026-04-16 23:09 41.43534 -123.33883 10020 ft 254 kts 212°
2026-04-16 23:09 41.41943 -123.34939 9979 ft 259 kts 211°
2026-04-16 23:09 41.40349 -123.35999 9979 ft 253 kts 212°
2026-04-16 23:09 41.38777 -123.37066 9977 ft 253 kts 212°
2026-04-16 23:10 41.37203 -123.38132 9938 ft 253 kts 212°
2026-04-16 23:10 41.35622 -123.39198 9858 ft 258 kts 212°
2026-04-16 23:10 41.34035 -123.40274 9575 ft 259 kts 212°
2026-04-16 23:10 41.32438 -123.41362 9286 ft 256 kts 212°
2026-04-16 23:11 41.30835 -123.42450 9014 ft 255 kts 212°
2026-04-16 23:11 41.29320 -123.43480 9301 ft 237 kts 212°
2026-04-16 23:11 41.27928 -123.44383 9990 ft 227 kts 212°
2026-04-16 23:11 41.26462 -123.45368 9738 ft 244 kts 212°
2026-04-16 23:12 41.24935 -123.46437 9453 ft 252 kts 213°
2026-04-16 23:12 41.23368 -123.47521 9117 ft 255 kts 212°
2026-04-16 23:12 41.21804 -123.48611 9050 ft 248 kts 212°
2026-04-16 23:12 41.20271 -123.49686 9097 ft 254 kts 212°
2026-04-16 23:13 41.18697 -123.50746 9084 ft 256 kts 212°
2026-04-16 23:13 41.17138 -123.51817 9232 ft 255 kts 212°
2026-04-16 23:13 41.15533 -123.52881 9167 ft 258 kts 210°
2026-04-16 23:13 41.13924 -123.53915 9218 ft 259 kts 211°
2026-04-16 23:14 41.12310 -123.55024 8930 ft 261 kts 212°
2026-04-16 23:14 41.10733 -123.56121 8641 ft 255 kts 212°
2026-04-16 23:14 41.09176 -123.57218 8336 ft 251 kts 212°
2026-04-16 23:14 41.07653 -123.58299 8064 ft 246 kts 212°
2026-04-16 23:15 41.04722 -123.60391 7949 ft 233 kts 212°
2026-04-16 23:15 41.03318 -123.61383 7938 ft 226 kts 212°
2026-04-16 23:15 41.01962 -123.62384 7981 ft 221 kts 216°
2026-04-16 23:16 41.00667 -123.63466 8040 ft 218 kts 216°
2026-04-16 23:16 40.99397 -123.64529 8085 ft 219 kts 217°
2026-04-16 23:16 40.98095 -123.65628 7920 ft 223 kts 217°
2026-04-16 23:16 40.96804 -123.66738 7936 ft 222 kts 217°
2026-04-16 23:17 40.95511 -123.67848 7957 ft 222 kts 217°
2026-04-16 23:17 40.94206 -123.68961 7940 ft 223 kts 217°
2026-04-16 23:17 40.92921 -123.70055 7959 ft 223 kts 217°
2026-04-16 23:17 40.91610 -123.71166 7957 ft 224 kts 217°
2026-04-16 23:18 40.90297 -123.72280 7961 ft 223 kts 217°
2026-04-16 23:18 40.88991 -123.73388 7964 ft 223 kts 217°
2026-04-16 23:18 40.87677 -123.74491 7962 ft 225 kts 217°
2026-04-16 23:18 40.86365 -123.75607 8017 ft 225 kts 218°
2026-04-16 23:19 40.85077 -123.76777 7985 ft 221 kts 219°
2026-04-16 23:19 40.83807 -123.77933 7978 ft 221 kts 219°
2026-04-16 23:19 40.82538 -123.79079 7986 ft 222 kts 219°
2026-04-16 23:19 40.81274 -123.80211 7994 ft 221 kts 219°
2026-04-16 23:20 40.79997 -123.81359 7985 ft 222 kts 219°
2026-04-16 23:20 40.78708 -123.82506 7983 ft 223 kts 219°
2026-04-16 23:20 40.77418 -123.83656 7981 ft 225 kts 218°
2026-04-16 23:20 40.76126 -123.84815 7982 ft 225 kts 219°
2026-04-16 23:21 40.74832 -123.85977 7978 ft 225 kts 219°
2026-04-16 23:21 40.73537 -123.87138 7978 ft 226 kts 219°
2026-04-16 23:21 40.72236 -123.88302 7971 ft 227 kts 218°
2026-04-16 23:21 40.70936 -123.89469 7938 ft 224 kts 219°
2026-04-16 23:22 40.69682 -123.90596 7785 ft 213 kts 219°
2026-04-16 23:22 40.68480 -123.91668 7623 ft 203 kts 219°
2026-04-16 23:22 40.67334 -123.92685 7447 ft 195 kts 219°
2026-04-16 23:22 40.66221 -123.93674 7283 ft 192 kts 219°
2026-04-16 23:23 40.65111 -123.94664 7092 ft 193 kts 218°
2026-04-16 23:23 40.64003 -123.95664 6877 ft 193 kts 219°
2026-04-16 23:23 40.62879 -123.96669 6654 ft 195 kts 219°
2026-04-16 23:23 40.61773 -123.97674 6423 ft 192 kts 219°
2026-04-16 23:24 40.60614 -123.98502 6165 ft 197 kts 196°
2026-04-16 23:24 40.59256 -123.98298 5883 ft 204 kts 154°
2026-04-16 23:24 40.58059 -123.97300 5685 ft 204 kts 149°
2026-04-16 23:24 40.56877 -123.96342 5794 ft 200 kts 150°
2026-04-16 23:25 40.55676 -123.95371 5855 ft 204 kts 150°
2026-04-16 23:25 40.54460 -123.94384 5840 ft 207 kts 148°
2026-04-16 23:25 40.53488 -123.92990 5593 ft 209 kts 111°
2026-04-16 23:25 40.53433 -123.91194 5626 ft 196 kts 66°
2026-04-16 23:26 40.54299 -123.89892 5793 ft 191 kts 23°
2026-04-16 23:26 40.55544 -123.89345 5898 ft 190 kts 14°
2026-04-16 23:26 40.56832 -123.88799 5717 ft 198 kts 14°
2026-04-16 23:26 40.58106 -123.88265 5639 ft 187 kts 14°
2026-04-16 23:27 40.59332 -123.87738 5684 ft 185 kts 15°
2026-04-16 23:27 40.60601 -123.87452 5706 ft 186 kts 350°
2026-04-16 23:27 40.61854 -123.87810 5701 ft 186 kts 344°
2026-04-16 23:27 40.63087 -123.88280 5654 ft 182 kts 334°
2026-04-16 23:28 40.64225 -123.89010 5722 ft 181 kts 333°
2026-04-16 23:28 40.65369 -123.89741 5721 ft 187 kts 331°
2026-04-16 23:28 40.66526 -123.90481 5661 ft 182 kts 333°
2026-04-16 23:28 40.67698 -123.91126 5706 ft 184 kts 340°
2026-04-16 23:29 40.68960 -123.91439 5696 ft 184 kts 347°
2026-04-16 23:29 40.70156 -123.92017 5710 ft 183 kts 330°
2026-04-16 23:29 40.71276 -123.92847 5646 ft 187 kts 330°
2026-04-16 23:29 40.72452 -123.93608 5494 ft 185 kts 334°
2026-04-16 23:30 40.73561 -123.94336 5227 ft 173 kts 332°
2026-04-16 23:30 40.74603 -123.95057 4971 ft 165 kts 332°
2026-04-16 23:30 40.75598 -123.95726 4674 ft 156 kts 332°
2026-04-16 23:30 40.76516 -123.96347 4568 ft 141 kts 332°
2026-04-16 23:31 40.77385 -123.96940 4608 ft 143 kts 332°
2026-04-16 23:31 40.78280 -123.97542 4717 ft 152 kts 332°
2026-04-16 23:31 40.79245 -123.98199 4407 ft 155 kts 332°
2026-04-16 23:31 40.80178 -123.98828 4172 ft 147 kts 332°
2026-04-16 23:32 40.81065 -123.99429 3945 ft 138 kts 332°
2026-04-16 23:32 40.81890 -123.99993 3751 ft 131 kts 332°
2026-04-16 23:32 40.82691 -124.00536 3573 ft 128 kts 333°
2026-04-16 23:32 40.83488 -124.01077 3383 ft 128 kts 333°
2026-04-16 23:33 40.84280 -124.01613 3196 ft 125 kts 334°
2026-04-16 23:33 40.85056 -124.02141 3040 ft 127 kts 333°
2026-04-16 23:33 40.85842 -124.02675 2887 ft 129 kts 334°
2026-04-16 23:33 40.86634 -124.03213 2692 ft 127 kts 333°
2026-04-16 23:34 40.87406 -124.03738 2520 ft 123 kts 334°
2026-04-16 23:34 40.88180 -124.04263 2345 ft 126 kts 334°
2026-04-16 23:34 40.88963 -124.04795 2172 ft 126 kts 335°
2026-04-16 23:34 40.89737 -124.05322 2018 ft 122 kts 334°
2026-04-16 23:35 40.90484 -124.05829 1859 ft 121 kts 335°
2026-04-16 23:35 40.91234 -124.06341 1672 ft 121 kts 334°
2026-04-16 23:35 40.91970 -124.06840 1492 ft 120 kts 334°
2026-04-16 23:35 40.92733 -124.07361 1305 ft 122 kts 335°
2026-04-16 23:36 40.93455 -124.07856 1093 ft 115 kts 333°
2026-04-16 23:36 40.94168 -124.08365 960 ft 119 kts 333°
2026-04-16 23:36 40.94902 -124.08873 748 ft 117 kts 333°
2026-04-16 23:36 40.95630 -124.09364 627 ft 119 kts 334°
2026-04-16 23:37 40.96369 -124.09851 401 ft 118 kts 333°
2026-04-16 23:37 40.97055 -124.10314 251 ft 106 kts 333°
2026-04-16 23:37 40.97640 -124.10712 214 ft 80 kts 333°
2026-04-16 23:37 40.97974 -124.10939 208 ft 32 kts 333°
2026-04-16 23:38 40.98129 -124.11043 202 ft 15 kts 333°
2026-04-16 23:38 40.98160 -124.11117 202 ft 10 kts 248°
2026-04-16 23:38 40.98125 -124.11159 208 ft 6 kts 173°
2026-04-16 23:38 40.98070 -124.11126 205 ft 11 kts 152°
2026-04-16 23:39 40.97983 -124.11066 205 ft 17 kts 153°
2026-04-16 23:39 40.97867 -124.10987 205 ft 20 kts 153°
2026-04-16 23:39 40.97731 -124.10894 209 ft 23 kts 153°
2026-04-16 23:39 40.97590 -124.10798 216 ft 23 kts 153°
2026-04-16 23:40 40.97447 -124.10700 221 ft 23 kts 153°
2026-04-16 23:40 40.97326 -124.10618 221 ft 19 kts 153°
2026-04-16 23:40 40.97231 -124.10554 222 ft 12 kts 153°
2026-04-16 23:40 40.97191 -124.10549 224 ft 6 kts 210°
2026-04-16 23:41 40.97160 -124.10606 222 ft 8 kts 240°
2026-04-16 23:41 40.97155 -124.10620 223 ft 0 kts 243°